McComb, MS

6:46 PM CDT on March 25, 2017 (GMT -0500)
McComb-Pike County-Lewis

Weather History for KMCB - April, 2013

Change the Weather History Date:

Friday, April 5, 2013

  Actual Average Record
Temperature  
Mean Temperature 55 °F -  
Max Temperature 66 °F 73 °F 85 °F (1955)
Min Temperature 44 °F 47 °F 30 °F (1987)
Degree Days  
Heating Degree Days 10    
Growing Degree Days 5 (Base 50)    
Moisture  
Dew Point 45 °F    
Average Humidity 78    
Maximum Humidity 93    
Minimum Humidity 47    
Precipitation  
Precipitation 0.00 in - - ()
Sea Level Pressure  
Sea Level Pressure 30.11 in    
Wind  
Wind Speed 10 mph (NNW)    
Max Wind Speed 14 mph    
Max Gust Speed 18 mph    
Visibility 10 miles    
Events      
Averages and records for this station are not official NWS values.
T = Trace of Precipitation, MM = Missing Value Source: NWS Daily Summary

Daily Weather History Graph

Daily Weather History Graph

Search for Another Location

Airport or City:

Trip Planner

Search our weather history database for the weather conditions in past years. The results will help you decide how hot, cold, wet, or windy it might be!

Date:

Astronomy

Apr. 05, 2013 Rise Set
Actual Time 6:45 AM CDT 7:23 PM CDT
Civil Twilight 6:20 AM CDT 7:48 PM CDT
Nautical Twilight 5:52 AM CDT 8:17 PM CDT
Astronomical Twilight 5:22 AM CDT 8:46 PM CDT
Moon 3:34 AM CDT (4/5) 3:04 PM CDT (4/5)
Length of Visible Light 13h 27m
Length of Day
12h 38m
Waning Crescent, 23% of the Moon is Illuminated
Apr 5
Waning Crescent
Apr 10
New
Apr 18
First Quarter
Apr 25
Full
May 2
Last Quarter

Hourly Weather History & Observations

Time (CDT) Temp. Windchill Dew Point Humidity Pressure Visibility Wind Dir Wind Speed Gust Speed Precip Events Conditions
12:53 AM 46.0 °F 39.9 °F 43.0 °F 89% 30.04 in 10.0 mi NW 13.8 mph - N/A   Overcast
1:42 AM 44.6 °F 38.8 °F 42.8 °F 93% 30.06 in 7.0 mi NNW 11.5 mph - N/A   Overcast
1:53 AM 45.0 °F 40.1 °F 43.0 °F 93% 30.06 in 8.0 mi NW 9.2 mph - N/A   Overcast
2:53 AM 45.0 °F 40.1 °F 43.0 °F 93% 30.05 in 10.0 mi NW 9.2 mph - N/A   Overcast
3:53 AM 45.0 °F 39.3 °F 43.0 °F 93% 30.06 in 10.0 mi NNW 11.5 mph - N/A   Overcast
4:53 AM 45.0 °F 39.3 °F 43.0 °F 93% 30.06 in 10.0 mi NNW 11.5 mph - N/A   Overcast
5:53 AM 45.0 °F 38.9 °F 42.1 °F 90% 30.08 in 10.0 mi NNW 12.7 mph 18.4 mph N/A   Overcast
6:53 AM 45.0 °F 40.6 °F 43.0 °F 93% 30.10 in 10.0 mi NNW 8.1 mph - N/A   Overcast
7:53 AM 46.0 °F 40.6 °F 44.1 °F 93% 30.12 in 10.0 mi NNW 11.5 mph - N/A   Overcast
8:53 AM 48.0 °F - 44.1 °F 86% 30.15 in 10.0 mi NNW 12.7 mph - N/A   Overcast
9:49 AM 48.2 °F - 44.6 °F 87% 30.16 in 10.0 mi North 5.8 mph - N/A   Overcast
9:53 AM 48.9 °F - 44.1 °F 83% 30.16 in 10.0 mi North 9.2 mph - N/A   Overcast
10:53 AM 51.1 °F - 44.1 °F 77% 30.18 in 10.0 mi North 11.5 mph - N/A   Overcast
11:20 AM 51.8 °F - 44.6 °F 76% 30.18 in 10.0 mi North 9.2 mph - N/A   Overcast
11:53 AM 54.0 °F - 45.0 °F 72% 30.18 in 10.0 mi NNW 10.4 mph 18.4 mph N/A   Overcast
12:35 PM 57.2 °F - 44.6 °F 63% 30.16 in 10.0 mi North 11.5 mph - N/A   Scattered Clouds
12:53 PM 57.9 °F - 45.0 °F 62% 30.16 in 10.0 mi North 11.5 mph 17.3 mph N/A   Scattered Clouds
1:53 PM 61.0 °F - 45.0 °F 56% 30.12 in 10.0 mi NNE 8.1 mph 16.1 mph N/A   Partly Cloudy
2:53 PM 64.0 °F - 45.0 °F 50% 30.11 in 10.0 mi NNE 8.1 mph - N/A   Partly Cloudy
3:53 PM 66.0 °F - 46.0 °F 48% 30.08 in 10.0 mi NNW 8.1 mph - N/A   Partly Cloudy
4:53 PM 66.0 °F - 46.0 °F 48% 30.08 in 10.0 mi North 9.2 mph - N/A   Clear
5:53 PM 66.0 °F - 45.0 °F 47% 30.07 in 10.0 mi North 9.2 mph - N/A   Clear
6:53 PM 63.0 °F - 46.0 °F 54% 30.09 in 10.0 mi NNW 8.1 mph - N/A   Clear
7:53 PM 54.0 °F - 48.0 °F 80% 30.10 in 10.0 mi Calm Calm - N/A   Clear
8:53 PM 53.1 °F - 48.0 °F 83% 30.12 in 10.0 mi Calm Calm - N/A   Clear
9:53 PM 48.9 °F - 46.9 °F 93% 30.14 in 10.0 mi Calm Calm - N/A   Clear
10:53 PM 48.9 °F - 46.0 °F 90% 30.14 in 10.0 mi Calm Calm - N/A   Clear
11:53 PM 46.0 °F - 43.0 °F 89% 30.14 in 10.0 mi Calm Calm - N/A   Clear